Figari, France

9:39 PM CEST on September 29, 2016 (GMT +0200)
Figari-Sud Corse

Weather History for LFKF - October, 2012

Change the Weather History Date:

Friday, October 12, 2012

  Actual Average Record
Temperature  
Mean Temperature 68 °F -  
Max Temperature 77 °F 71 °F 81 °F (2014)
Min Temperature 60 °F 55 °F 48 °F (1999)
Cooling Degree Days 4    
Growing Degree Days 18 (Base 50)    
Moisture  
Dew Point 61 °F    
Average Humidity 79    
Maximum Humidity 94    
Minimum Humidity 57    
Precipitation  
Precipitation 0.00 in - - ()
Sea Level Pressure  
Sea Level Pressure 29.83 in    
Wind  
Wind Speed 5 mph ()    
Max Wind Speed 14 mph    
Max Gust Speed -    
Visibility 5.8 miles    
Events Rain , Thunderstorm    
Averages and records for this station are not official NWS values.
T = Trace of Precipitation, MM = Missing Value Source: Averaged Metar Reports

Daily Weather History Graph

Daily Weather History Graph

Search for Another Location

Airport or City:

Trip Planner

Search our weather history database for the weather conditions in past years. The results will help you decide how hot, cold, wet, or windy it might be!

Date:

Astronomy

Oct. 12, 2012 Rise Set
Actual Time 7:32 AM CEST 6:46 PM CEST
Civil Twilight 7:04 AM CEST 7:14 PM CEST
Nautical Twilight 6:32 AM CEST 7:46 PM CEST
Astronomical Twilight 6:00 AM CEST 8:18 PM CEST
Moon 3:55 AM CEST (10/12) 4:49 PM CEST (10/12)
Length of Visible Light 12h 10m
Length of Day
11h 14m
Waning Crescent, 12% of the Moon is Illuminated
Oct 12
Waning Crescent
Oct 15
New
Oct 22
First Quarter
Oct 29
Full
Nov 7
Last Quarter

Hourly Weather History & Observations

Time (CEST) Temp. Dew Point Humidity Pressure Visibility Wind Dir Wind Speed Gust Speed Precip Events Conditions
12:00 AM 64.4 °F 59.0 °F 83% 29.83 in 6.2 mi NW 3.5 mph - N/A   Mostly Cloudy
12:30 AM 66.2 °F 60.8 °F 83% 29.83 in 6.2 mi Variable 2.3 mph - N/A   Overcast
1:00 AM 64.4 °F 60.8 °F 88% 29.80 in 6.2 mi Variable 2.3 mph - N/A Rain Light Rain
1:30 AM 64.4 °F 60.8 °F 88% 29.80 in 4.3 mi West 3.5 mph - N/A Rain Light Rain
2:00 AM 64.4 °F 62.6 °F 94% 29.83 in 3.7 mi Variable 2.3 mph - N/A Rain , Thunderstorm Light Rain
2:30 AM 66.2 °F 64.4 °F 94% 29.83 in 1.2 mi SSW 5.8 mph - N/A Rain , Thunderstorm Heavy Thunderstorms and Rain
3:00 AM 66.2 °F 64.4 °F 94% 29.83 in 2.8 mi Calm Calm - N/A Rain , Thunderstorm Light Rain
3:30 AM 66.2 °F 64.4 °F 94% 29.83 in 4.3 mi Variable 3.5 mph - N/A Rain , Thunderstorm Light Rain
4:00 AM 64.4 °F 62.6 °F 94% 29.80 in 4.3 mi SSW 3.5 mph - N/A Rain Light Rain
4:30 AM 64.4 °F 62.6 °F 94% 29.80 in 6.2 mi West 1.2 mph - N/A Rain Light Rain
5:00 AM 66.2 °F 64.4 °F 94% 29.80 in 6.2 mi West 4.6 mph - N/A   Overcast
5:30 AM 64.4 °F 62.6 °F 94% 29.80 in 6.2 mi West 3.5 mph - N/A   Mostly Cloudy
6:00 AM 64.4 °F 62.6 °F 94% 29.80 in 1.3 mi WSW 5.8 mph - N/A Rain Rain
6:30 AM 64.4 °F 62.6 °F 94% 29.80 in 6.2 mi SSW 3.5 mph - N/A Rain Light Rain
7:00 AM 62.6 °F 59.0 °F 88% 29.80 in 6.2 mi Variable 2.3 mph - N/A   Unknown
7:30 AM 60.8 °F 59.0 °F 94% 29.80 in 6.2 mi WSW 3.5 mph - N/A   Unknown
8:00 AM 60.8 °F 59.0 °F 94% 29.77 in 6.2 mi Variable 3.5 mph - N/A   Unknown
8:30 AM 62.6 °F 60.8 °F 94% 29.80 in 6.2 mi SE 3.5 mph - N/A   Partly Cloudy
9:00 AM 64.4 °F 62.6 °F 94% 29.80 in 6.2 mi South 3.5 mph - N/A   Mostly Cloudy
9:30 AM 66.2 °F 64.4 °F 94% 29.83 in 6.2 mi Calm Calm - N/A   Overcast
10:00 AM 68.0 °F 64.4 °F 88% 29.83 in 6.2 mi West 8.1 mph - N/A   Mostly Cloudy
10:30 AM 71.6 °F 66.2 °F 83% 29.83 in 6.2 mi West 9.2 mph - N/A   Scattered Clouds
11:00 AM 73.4 °F 64.4 °F 73% 29.83 in 6.2 mi WSW 12.7 mph - N/A   Partly Cloudy
11:30 AM 75.2 °F 64.4 °F 69% 29.83 in 6.2 mi West 11.5 mph - N/A   Partly Cloudy
12:00 PM 77.0 °F 64.4 °F 65% 29.83 in 6.2 mi WSW 10.4 mph - N/A   Mostly Cloudy
12:30 PM 75.2 °F 64.4 °F 69% 29.86 in 6.2 mi WSW 9.2 mph - N/A   Mostly Cloudy
1:00 PM 77.0 °F 64.4 °F 65% 29.83 in 6.2 mi WSW 9.2 mph - N/A   Mostly Cloudy
1:30 PM 77.0 °F 62.6 °F 61% 29.83 in 6.2 mi WSW 13.8 mph - N/A   Mostly Cloudy
2:00 PM 77.0 °F 60.8 °F 57% 29.83 in 6.2 mi WSW 11.5 mph - N/A   Mostly Cloudy
2:30 PM 77.0 °F 62.6 °F 61% 29.83 in 6.2 mi WSW 12.7 mph - N/A   Unknown
3:00 PM 77.0 °F 60.8 °F 57% 29.83 in 6.2 mi West 11.5 mph - N/A   Scattered Clouds
3:30 PM 77.0 °F 60.8 °F 57% 29.83 in 6.2 mi WSW 13.8 mph - N/A   Scattered Clouds
4:00 PM 75.2 °F 60.8 °F 61% 29.83 in 6.2 mi WSW 11.5 mph - N/A   Partly Cloudy
4:30 PM 75.2 °F 60.8 °F 61% 29.83 in 6.2 mi WSW 13.8 mph - N/A   Partly Cloudy
5:00 PM 75.2 °F 60.8 °F 61% 29.83 in 6.2 mi WSW 12.7 mph - N/A   Partly Cloudy
5:30 PM 73.4 °F 60.8 °F 65% 29.83 in 6.2 mi WSW 12.7 mph - N/A   Scattered Clouds
6:00 PM 71.6 °F 59.0 °F 64% 29.86 in 6.2 mi West 12.7 mph - N/A   Partly Cloudy
6:30 PM 69.8 °F 59.0 °F 68% 29.86 in 6.2 mi WSW 9.2 mph - N/A   Unknown
7:00 PM 68.0 °F 59.0 °F 73% 29.86 in 6.2 mi SW 8.1 mph - N/A   Unknown
7:30 PM 68.0 °F 59.0 °F 73% 29.86 in 6.2 mi SW 9.2 mph - N/A   Unknown
8:00 PM 66.2 °F 59.0 °F 78% 29.89 in 6.2 mi SW 10.4 mph - N/A   Unknown
8:30 PM 66.2 °F 59.0 °F 78% 29.89 in 6.2 mi WSW 9.2 mph - N/A   Unknown
9:00 PM 66.2 °F 57.2 °F 73% 29.89 in 6.2 mi WSW 9.2 mph - N/A   Unknown
9:30 PM 64.4 °F 57.2 °F 77% 29.89 in 6.2 mi WSW 8.1 mph - N/A   Unknown
10:00 PM 66.2 °F 57.2 °F 73% 29.89 in 6.2 mi WSW 9.2 mph - N/A   Unknown
10:30 PM 64.4 °F 57.2 °F 77% 29.92 in 6.2 mi WSW 8.1 mph - N/A   Unknown
11:00 PM 64.4 °F 57.2 °F 77% 29.89 in 6.2 mi WSW 5.8 mph - N/A   Unknown
11:30 PM 64.4 °F 57.2 °F 77% 29.89 in 6.2 mi WSW 6.9 mph - N/A   Unknown